This is the latest recevied weather packets stored in our database for station/object OE-11349. If no packets are shown the sender has not sent any weather packets the latest 10 day(s).
| Time | Temp. | Humidity | Pressure | Rain* | Wind** | Luminosity | Snow |
|---|---|---|---|---|---|---|---|
| 1787622082 | 11.67° C | 81% | 850.9 hPa | - | - | 0 W/m² | - |
| 1787621709 | 12.22° C | 80% | 850.9 hPa | - | - | 0 W/m² | - |
| 1787621109 | 11.67° C | 81% | 851.1 hPa | - | - | 0 W/m² | - |
| 1787620281 | 11.67° C | 84% | 851.3 hPa | - | - | 0 W/m² | - |
| 1787619909 | 11.11° C | 86% | 851.4 hPa | - | - | 0 W/m² | - |
| 1787619309 | 11.11° C | 86% | 851.3 hPa | - | - | 0 W/m² | - |
| 1787618481 | 11.11° C | 86% | 851.3 hPa | - | - | 0 W/m² | - |
| 1787618109 | 11.11° C | 86% | 851.4 hPa | - | - | 0 W/m² | - |
| 1787617509 | 11.11° C | 86% | 851.4 hPa | - | - | 0 W/m² | - |
| 1787616682 | 11.11° C | 88% | 851.5 hPa | - | - | 0 W/m² | - |
| 1787616309 | 11.67° C | 86% | 851.5 hPa | - | - | 0 W/m² | - |
| 1787615709 | 12.22° C | 82% | 851.9 hPa | - | - | 0 W/m² | - |
| 1787614881 | 12.22° C | 80% | 851.8 hPa | - | - | 0 W/m² | - |
| 1787614509 | 12.22° C | 79% | 852 hPa | - | - | 0 W/m² | - |
| 1787613909 | 12.78° C | 79% | 852.5 hPa | - | - | 0 W/m² | - |
| 1787613309 | 12.78° C | 79% | 852.6 hPa | - | - | 0 W/m² | - |
| 1787612708 | 12.78° C | 80% | 852.9 hPa | - | - | 0 W/m² | - |
| 1787612109 | 12.78° C | 81% | 853.3 hPa | - | - | 0 W/m² | - |
| 1787611282 | 12.78° C | 79% | 853.4 hPa | - | - | 0 W/m² | - |
| 1787610908 | 12.78° C | 78% | 853.5 hPa | - | - | 0 W/m² | - |
| 1787610309 | 13.33° C | 78% | 853.6 hPa | - | - | 0 W/m² | - |
| 1787609482 | 13.33° C | 76% | 853.8 hPa | - | - | 0 W/m² | - |
| 1787609109 | 13.33° C | 78% | 853.6 hPa | - | - | 0 W/m² | - |
| 1787607682 | 13.33° C | 78% | 853.5 hPa | - | - | 0 W/m² | - |
| 1787607309 | 13.33° C | 78% | 853.5 hPa | - | - | 0 W/m² | - |
* Rain since midnight (hover to see other rain measurements)
** Current wind speed in m/s (hover to see current wind gust speed)